When you browse on this site, cookies collect data to enhance your experience and personalize the content and advertising you see.
Visit our Privacy Policy to learn more. By continuing to use the site, you agree to this use of cookies and data.
  • în România
  • Lista ţărilor
  • Pe 7 zile
  • Temperatura apei
  • Meteo pe hartă
  • Widget-uri
  • user-avatar
    Intrare

    Meteo pe oră la Gokak

    Astăzi, 22 Ianuarie, Miercuri

    Timp Temperatura Precipitaţii Vânt Presiune Umiditate
    00:00 +23°C° 0 mm 4 m/s 706 mmHg 46%
    01:00 +22°C° 0 mm 4 m/s 706 mmHg 47%
    02:00 +21°C° 0 mm 5 m/s 706 mmHg 48%
    03:00 +21°C° 0 mm 5 m/s 705 mmHg 53%
    04:00 +20°C° 0 mm 5 m/s 705 mmHg 59%
    05:00 +19°C° 0 mm 5 m/s 705 mmHg 72%
    06:00 +20°C° 0 mm 5 m/s 706 mmHg 66%
    07:00 +21°C° 0 mm 6 m/s 707 mmHg 61%
    08:00 +22°C° 0 mm 6 m/s 707 mmHg 56%
    09:00 +24°C° 0 mm 6 m/s 708 mmHg 48%
    10:00 +28°C° 0 mm 7 m/s 708 mmHg 39%
    11:00 +30°C° 0 mm 7 m/s 708 mmHg 30%
    12:00 +32°C° 0 mm 6 m/s 707 mmHg 27%
    13:00 +33°C° 0 mm 6 m/s 706 mmHg 23%
    14:00 +34°C° 0 mm 5 m/s 705 mmHg 20%
    15:00 +33°C° 0 mm 5 m/s 705 mmHg 21%
    16:00 +33°C° 0 mm 4 m/s 705 mmHg 22%
    17:00 +32°C° 0 mm 4 m/s 705 mmHg 23%
    18:00 +30°C° 0 mm 4 m/s 705 mmHg 27%
    19:00 +28°C° 0 mm 3 m/s 706 mmHg 31%
    20:00 +26°C° 0 mm 3 m/s 706 mmHg 35%
    21:00 +25°C° 0 mm 3 m/s 706 mmHg 39%
    22:00 +24°C° 0 mm 3 m/s 706 mmHg 43%
    23:00 +24°C° 0 mm 3 m/s 706 mmHg 48%

    Mâine, 23 Ianuarie, Joi

    Timp Temperatura Precipitaţii Vânt Presiune Umiditate
    00:00 +22°C° 0 mm 3 m/s 705 mmHg 52%
    01:00 +22°C° 0 mm 4 m/s 705 mmHg 56%
    02:00 +21°C° 0 mm 4 m/s 705 mmHg 60%
    03:00 +20°C° 0 mm 4 m/s 705 mmHg 67%
    04:00 +20°C° 0 mm 4 m/s 704 mmHg 75%
    05:00 +19°C° 0 mm 4 m/s 704 mmHg 82%
    06:00 +20°C° 0 mm 4 m/s 705 mmHg 77%
    07:00 +21°C° 0 mm 4 m/s 706 mmHg 73%
    08:00 +22°C° 0 mm 5 m/s 707 mmHg 68%
    09:00 +25°C° 0 mm 5 m/s 707 mmHg 56%
    10:00 +28°C° 0 mm 5 m/s 707 mmHg 44%
    11:00 +30°C° 0 mm 5 m/s 707 mmHg 31%
    12:00 +32°C° 0 mm 5 m/s 706 mmHg 28%
    13:00 +33°C° 0 mm 5 m/s 705 mmHg 24%
    14:00 +34°C° 0 mm 5 m/s 705 mmHg 21%
    15:00 +34°C° 0 mm 4 m/s 704 mmHg 21%
    16:00 +33°C° 0 mm 4 m/s 704 mmHg 22%
    17:00 +33°C° 0 mm 4 m/s 704 mmHg 22%
    18:00 +30°C° 0 mm 4 m/s 704 mmHg 25%
    19:00 +28°C° 0 mm 3 m/s 705 mmHg 28%
    20:00 +26°C° 0 mm 3 m/s 706 mmHg 30%
    21:00 +25°C° 0 mm 3 m/s 705 mmHg 32%
    22:00 +25°C° 0 mm 3 m/s 705 mmHg 34%
    23:00 +24°C° 0 mm 3 m/s 705 mmHg 35%

    Poimâine, 24 Ianuarie, Vineri

    Timp Temperatura Precipitaţii Vânt Presiune Umiditate
    00:00 +24°C° 0 mm 3 m/s 705 mmHg 37%
    01:00 +22°C° 0 mm 3 m/s 705 mmHg 38%
    02:00 +22°C° 0 mm 3 m/s 705 mmHg 39%
    03:00 +21°C° 0 mm 3 m/s 704 mmHg 45%
    04:00 +20°C° 0 mm 3 m/s 704 mmHg 51%
    05:00 +19°C° 0 mm 4 m/s 704 mmHg 56%
    06:00 +20°C° 0 mm 4 m/s 705 mmHg 56%
    07:00 +21°C° 0 mm 4 m/s 706 mmHg 56%
    08:00 +22°C° 0 mm 4 m/s 706 mmHg 55%
    09:00 +26°C° 0 mm 4 m/s 707 mmHg 47%
    10:00 +28°C° 0 mm 4 m/s 707 mmHg 39%
    11:00 +32°C° 0 mm 4 m/s 707 mmHg 31%
    12:00 +32°C° 0 mm 4 m/s 706 mmHg 28%
    13:00 +33°C° 0 mm 4 m/s 706 mmHg 24%
    14:00 +34°C° 0 mm 3 m/s 705 mmHg 21%
    15:00 +34°C° 0 mm 3 m/s 705 mmHg 21%
    16:00 +34°C° 0 mm 3 m/s 705 mmHg 21%
    17:00 +34°C° 0 mm 3 m/s 704 mmHg 21%
    18:00 +31°C° 0 mm 3 m/s 705 mmHg 25%
    19:00 +29°C° 0 mm 3 m/s 705 mmHg 28%
    20:00 +26°C° 0 mm 3 m/s 705 mmHg 32%
    21:00 +26°C° 0 mm 3 m/s 705 mmHg 33%
    22:00 +25°C° 0 mm 3 m/s 705 mmHg 34%
    23:00 +24°C° 0 mm 3 m/s 706 mmHg 36%

    25 Ianuarie, Sâmbătă

    Timp Temperatura Precipitaţii Vânt Presiune Umiditate
    00:00 +24°C° 0 mm 3 m/s 705 mmHg 36%
    01:00 +22°C° 0 mm 3 m/s 705 mmHg 37%
    02:00 +23°C° 0 mm 2 m/s 704 mmHg 37%
    03:00 +21°C° 0 mm 2 m/s 704 mmHg 39%
    04:00 +20°C° 0 mm 2 m/s 704 mmHg 41%
    05:00 +21°C° 0 mm 1 m/s 704 mmHg 43%
    06:00 +22°C° 0 mm 1 m/s 705 mmHg 41%
    07:00 +23°C° 0 mm 1 m/s 705 mmHg 40%
    08:00 +24°C° 0 mm 1 m/s 706 mmHg 38%
    09:00 +26°C° 0 mm 2 m/s 706 mmHg 35%
    10:00 +28°C° 0 mm 2 m/s 706 mmHg 31%
    11:00 +30°C° 0 mm 2 m/s 707 mmHg 28%
    12:00 +31°C° 0 mm 2 m/s 706 mmHg 26%
    13:00 +32°C° 0 mm 2 m/s 705 mmHg 24%
    14:00 +34°C° 0 mm 3 m/s 704 mmHg 23%
    15:00 +34°C° 0 mm 2 m/s 704 mmHg 22%
    16:00 +34°C° 0 mm 2 m/s 704 mmHg 22%
    17:00 +34°C° 0 mm 2 m/s 704 mmHg 22%
    18:00 +31°C° 0 mm 2 m/s 704 mmHg 26%
    19:00 +29°C° 0 mm 2 m/s 704 mmHg 29%
    20:00 +26°C° 0 mm 1 m/s 705 mmHg 33%
    21:00 +26°C° 0 mm 1 m/s 705 mmHg 34%
    22:00 +25°C° 0 mm 2 m/s 704 mmHg 36%
    23:00 +25°C° 0 mm 2 m/s 704 mmHg 37%

    26 Ianuarie, Duminică

    Timp Temperatura Precipitaţii Vânt Presiune Umiditate
    00:00 +24°C° 0 mm 2 m/s 704 mmHg 39%
    01:00 +24°C° 0 mm 1 m/s 703 mmHg 41%
    02:00 +23°C° 0 mm 1 m/s 703 mmHg 43%
    03:00 +23°C° 0 mm 1 m/s 703 mmHg 43%
    04:00 +23°C° 0 mm 1 m/s 703 mmHg 44%
    05:00 +22°C° 0 mm 1 m/s 703 mmHg 44%
    06:00 +23°C° 0 mm 2 m/s 704 mmHg 42%
    07:00 +24°C° 0 mm 2 m/s 705 mmHg 40%
    08:00 +25°C° 0 mm 3 m/s 705 mmHg 38%
    09:00 +28°C° 0 mm 3 m/s 705 mmHg 34%
    10:00 +30°C° 0 mm 3 m/s 706 mmHg 29%
    11:00 +33°C° 0 mm 3 m/s 706 mmHg 25%
    12:00 +34°C° 0 mm 3 m/s 705 mmHg 24%
    13:00 +34°C° 0 mm 3 m/s 705 mmHg 22%
    14:00 +35°C° 0 mm 3 m/s 704 mmHg 21%
    15:00 +35°C° 0 mm 2 m/s 704 mmHg 22%
    16:00 +35°C° 0 mm 2 m/s 704 mmHg 22%
    17:00 +34°C° 0 mm 2 m/s 704 mmHg 23%
    18:00 +31°C° 0 mm 2 m/s 704 mmHg 32%
    19:00 +28°C° 0 mm 3 m/s 704 mmHg 42%
    20:00 +25°C° 0 mm 3 m/s 704 mmHg 51%
    21:00 +24°C° 0 mm 3 m/s 704 mmHg 55%
    22:00 +24°C° 0 mm 2 m/s 704 mmHg 59%
    23:00 +23°C° 0 mm 2 m/s 704 mmHg 64%

    27 Ianuarie, Luni

    Timp Temperatura Precipitaţii Vânt Presiune Umiditate
    00:00 +23°C° 0 mm 2 m/s 703 mmHg 64%
    01:00 +21°C° 0 mm 2 m/s 703 mmHg 64%
    02:00 +22°C° 0 mm 1 m/s 702 mmHg 64%
    03:00 +21°C° 0 mm 1 m/s 702 mmHg 63%
    04:00 +21°C° 0 mm 1 m/s 702 mmHg 63%
    05:00 +20°C° 0 mm 1 m/s 702 mmHg 62%
    06:00 +22°C° 0 mm 1 m/s 703 mmHg 58%
    07:00 +23°C° 0 mm 1 m/s 704 mmHg 53%
    08:00 +24°C° 0 mm 1 m/s 704 mmHg 48%
    09:00 +26°C° 0 mm 1 m/s 705 mmHg 42%
    10:00 +28°C° 0 mm 1 m/s 705 mmHg 35%
    11:00 +30°C° 0 mm 2 m/s 705 mmHg 28%
    12:00 +31°C° 0 mm 2 m/s 704 mmHg 26%
    13:00 +32°C° 0 mm 2 m/s 703 mmHg 25%
    14:00 +34°C° 0 mm 3 m/s 703 mmHg 24%
    15:00 +33°C° 0 mm 3 m/s 703 mmHg 25%
    16:00 +33°C° 0 mm 4 m/s 702 mmHg 26%
    17:00 +33°C° 0 mm 5 m/s 702 mmHg 28%
    18:00 +29°C° 0 mm 5 m/s 703 mmHg 39%
    19:00 +27°C° 0 mm 5 m/s 703 mmHg 50%
    20:00 +23°C° 0 mm 5 m/s 703 mmHg 61%
    21:00 +22°C° 0 mm 4 m/s 703 mmHg 64%
    22:00 +22°C° 0 mm 3 m/s 703 mmHg 67%
    23:00 +21°C° 0 mm 3 m/s 704 mmHg 70%
    Arată mai mult